Wind_Speed
35 37 36 35 33 30 27 24 23 23 25 26 26 26 25 23 22 21 19 18 17 16 16 14 13 13 13 13 12 11 11 10 11 11 12 12 12 12 12 12 13 13 14 16 17 17 18 19 20 20 20 19 18 17 16 14 13 10 8 8 8 9 9 11 19 28 29 26 27 28 27 26 26 24 22 21 22 23 24 25 25 23 22 21 22
29 32 34 35 36 35 32 28 24 23 25 28 29 28 27 25 24 23 22 20 19 18 17 16 15 15 15 15 14 13 13 13 13 14 14 15 15 15 14 14 14 15 15 16 17 17 18 19 20 20 20 19 18 18 17 16 15 13 10 8 8 8 10 13 16 24 29 27 25 27 27 25 26 25 24 23 23 24 24 25 27 25 24 22 20
22 25 27 30 33 35 36 35 32 29 28 29 30 30 29 27 26 25 24 22 21 19 19 18 17 17 17 17 16 15 14 14 15 16 16 17 17 17 17 17 17 17 18 18 19 19 20 21 21 20 20 19 18 17 17 17 16 16 15 12 11 9 10 12 15 21 28 28 25 25 27 27 26 26 26 27 28 28 28 28 27 27 28 26 23
17 19 22 24 26 28 33 37 39 39 36 33 31 30 31 30 28 27 26 24 22 21 20 20 20 20 19 19 18 17 16 17 18 18 19 19 20 19 19 19 19 19 20 20 21 22 22 22 22 21 20 19 18 17 17 17 17 17 17 16 15 13 10 11 14 17 22 26 25 23 25 27 27 26 27 28 29 29 29 29 28 27 27 28 27
9 13 16 20 21 23 28 33 39 42 42 40 36 32 31 32 31 30 28 26 25 23 22 22 22 22 21 21 20 19 19 20 20 21 22 22 22 21 21 21 21 21 22 22 23 24 23 22 21 20 19 18 18 18 18 18 18 18 18 18 18 17 15 13 14 16 18 22 24 22 23 27 29 27 26 26 28 28 27 27 27 27 26 27 28
5 5 8 13 16 20 24 28 33 38 42 44 43 38 35 34 34 34 31 29 27 25 24 25 24 24 23 23 23 22 22 23 23 24 24 23 23 23 22 22 22 23 24 24 25 23 21 20 19 19 18 18 18 18 18 19 19 19 19 19 19 20 20 19 19 20 22 24 27 28 28 29 30 28 26 25 26 27 27 27 27 26 27 28 28
7 7 6 7 9 12 16 20 25 30 35 40 42 42 40 38 37 37 35 32 30 28 27 27 26 25 24 24 25 25 25 25 25 24 24 24 24 24 23 22 23 24 25 25 24 22 20 19 19 18 18 18 19 19 19 20 20 20 20 19 19 19 21 22 22 23 26 28 30 31 31 30 30 28 26 24 24 26 27 27 26 23 23 26 25
11 10 9 8 8 8 10 13 17 21 27 32 36 40 40 39 38 37 38 36 33 30 30 28 27 26 25 25 26 26 26 26 25 25 24 24 24 24 23 23 24 25 25 24 23 22 21 20 19 19 19 20 20 20 20 21 21 22 20 18 17 16 17 19 20 21 23 26 29 31 32 32 31 30 27 23 21 21 21 21 21 20 19 21 22
11 12 12 11 11 10 9 10 12 15 20 24 29 33 36 38 37 36 39 40 37 34 33 30 27 26 25 26 26 27 27 26 25 24 24 24 24 23 23 24 24 24 24 23 22 21 21 21 21 21 21 21 21 21 21 21 22 23 23 21 21 20 17 16 17 17 19 22 24 26 29 30 31 32 31 26 20 17 18 20 21 22 20 21 23
13 14 14 14 14 13 13 13 13 13 16 19 22 25 29 33 34 36 40 42 39 36 33 27 25 25 24 25 26 26 26 24 23 24 23 23 23 23 23 24 24 23 22 21 21 21 21 22 23 23 23 24 24 24 23 23 22 23 23 23 24 24 23 21 19 19 19 20 20 21 23 26 29 30 31 32 25 19 19 20 19 19 20 21 23
17 17 17 16 16 16 16 17 16 15 15 15 18 21 24 28 31 35 40 39 36 35 31 24 23 25 24 25 26 26 25 22 22 23 22 22 22 22 23 23 23 22 21 21 22 22 23 24 25 25 25 25 26 26 26 25 25 24 24 24 24 25 26 26 25 23 22 21 21 20 21 22 24 25 27 29 27 21 17 17 17 17 18 19 20
19 19 19 19 18 19 19 19 19 19 17 16 17 20 23 26 28 32 36 34 32 33 29 24 25 26 25 25 26 24 22 20 21 22 22 21 22 22 23 22 22 21 21 21 22 23 25 26 26 27 26 26 26 27 28 28 28 28 28 27 27 27 27 27 28 28 26 25 23 23 23 22 21 21 20 20 20 18 16 16 17 18 18 18 19
22 21 21 21 20 19 20 21 22 22 21 19 19 21 24 25 26 30 33 33 34 34 29 25 27 28 26 25 25 22 20 19 19 19 20 21 21 21 22 21 21 21 22 23 24 25 26 27 28 29 29 28 28 28 29 29 30 31 31 31 31 31 30 30 29 29 29 28 27 25 23 22 21 20 18 16 16 17 18 18 17 18 19 19 19
26 25 24 23 22 21 20 21 22 23 23 22 21 21 23 25 26 30 33 34 35 35 32 29 28 28 26 25 23 20 18 17 17 18 20 21 21 21 21 21 22 22 22 23 25 26 28 29 31 32 32 31 30 29 29 30 31 32 32 33 33 32 32 30 27 27 28 29 29 28 24 23 23 21 18 18 19 20 21 20 18 19 20 21 21
28 28 27 26 25 23 22 22 22 23 23 23 22 21 23 25 28 30 33 34 36 37 36 32 28 27 25 23 20 17 15 15 16 18 19 20 20 21 21 22 22 22 23 24 26 28 29 31 33 34 35 35 33 31 30 30 31 32 33 34 33 32 31 27 23 22 23 23 25 25 23 21 21 20 19 19 21 21 22 22 22 23 24 26 28
30 29 28 27 25 25 24 24 23 23 22 22 21 20 21 24 27 30 33 35 35 37 35 30 27 26 24 20 17 15 14 15 16 18 18 19 20 21 22 22 23 24 25 26 27 30 31 33 34 36 37 38 36 33 31 30 32 33 33 32 30 28 27 26 26 28 29 28 27 26 25 24 24 24 23 22 23 20 20 24 27 25 25 29 31
29 29 29 28 26 25 24 24 24 23 22 21 20 20 20 22 25 30 33 36 37 38 34 30 27 25 21 17 14 14 14 15 16 17 17 17 19 20 21 22 24 25 27 28 30 32 34 34 35 37 39 39 38 35 32 31 33 32 29 27 25 24 24 23 26 30 32 33 34 34 34 33 32 32 32 32 31 26 24 29 29 25 25 29 31
28 29 29 28 27 25 24 24 23 22 23 22 20 18 18 20 23 28 33 38 38 36 31 27 24 20 16 14 13 13 14 15 15 15 15 16 17 19 20 22 25 26 28 30 33 35 37 38 38 38 40 39 37 36 33 33 34 31 27 26 25 24 23 22 24 26 28 30 31 31 32 33 34 35 35 35 35 31 31 32 29 25 27 30 29
29 29 30 30 28 26 24 24 22 21 21 21 18 17 18 20 23 28 35 37 35 31 27 23 19 15 14 13 12 12 12 12 12 12 13 14 16 18 20 23 25 27 29 31 35 38 40 41 41 41 42 40 37 36 34 33 33 32 28 26 26 25 24 24 24 23 23 24 24 24 24 25 27 29 30 30 30 31 33 33 30 28 30 30 27
30 31 32 30 28 26 24 23 22 20 20 18 16 15 18 21 26 32 37 35 31 28 24 19 16 14 13 12 10 10 9 9 10 11 12 13 15 18 20 23 26 28 29 32 36 39 40 42 44 44 43 41 39 37 35 33 33 33 31 28 28 28 27 26 24 24 24 24 24 25 26 26 26 27 27 26 24 25 28 29 29 29 30 31 28
32 32 32 31 28 25 23 22 21 20 18 15 13 14 20 24 28 34 37 34 29 25 20 16 14 12 10 8 7 7 8 9 10 11 13 14 16 18 21 23 25 27 30 33 36 39 41 43 41 38 38 39 39 38 36 34 33 33 33 32 32 32 31 30 30 29 29 28 28 29 29 28 27 26 25 24 24 24 26 28 28 28 31 33 31
31 31 33 32 27 23 21 21 20 19 17 14 12 15 21 26 31 36 36 30 26 22 18 15 12 8 6 6 6 6 8 10 11 12 14 15 17 19 22 25 26 28 32 35 37 40 42 37 31 30 35 40 40 38 37 34 32 32 33 33 32 30 29 30 30 29 29 28 27 27 26 26 27 26 25 25 25 25 26 27 28 29 31 33 32
28 31 32 30 24 21 20 18 18 18 16 13 13 16 23 30 35 35 31 28 25 20 16 13 10 8 7 6 5 6 8 10 12 14 16 17 19 21 23 26 27 29 33 36 38 40 37 31 28 33 38 40 38 36 35 32 30 30 29 28 27 25 25 27 28 27 28 27 27 27 26 27 28 28 28 27 27 25 25 25 27 29 30 31 32
27 30 30 25 20 17 16 16 16 15 14 14 17 22 30 35 35 31 28 26 22 18 17 14 12 10 8 4 2 3 6 8 11 14 16 17 19 21 23 25 27 29 32 35 37 37 35 33 35 39 39 37 35 34 32 30 28 27 25 23 22 23 24 26 27 27 28 30 31 32 32 32 32 31 30 28 27 25 24 26 28 29 30 31 31
27 28 26 20 15 14 14 13 12 12 14 18 22 27 33 35 31 27 25 21 20 19 18 15 12 9 6 4 2 2 5 8 10 12 14 16 17 20 22 24 25 27 30 33 36 37 37 37 38 38 36 35 34 31 29 28 27 26 24 22 22 22 24 25 26 27 30 31 33 34 35 36 36 35 32 30 28 27 26 27 28 28 28 30 32
25 25 23 17 12 13 15 13 12 13 16 20 25 28 30 27 23 22 21 21 20 19 16 14 11 9 7 5 4 6 7 10 11 12 14 16 18 21 23 24 26 28 30 32 34 36 36 37 37 36 34 32 30 27 26 25 24 24 22 20 20 20 21 23 25 27 29 30 32 34 35 35 35 34 33 32 31 31 30 29 29 28 28 29 31
22 22 20 15 13 15 17 15 15 19 25 29 29 27 25 24 22 22 23 21 20 18 15 13 11 9 7 6 7 10 11 12 14 15 17 20 21 23 25 27 28 30 31 33 34 35 36 36 35 32 28 25 24 23 22 21 20 20 19 18 18 19 19 22 24 26 27 29 31 32 34 34 33 33 33 32 33 33 31 30 29 29 29 28 29
19 19 18 15 14 16 17 17 20 28 33 31 28 28 28 26 23 23 23 20 18 17 15 13 10 8 8 8 10 12 13 15 17 18 20 22 24 25 27 28 29 30 32 32 34 35 35 32 28 23 20 20 20 19 18 18 18 19 19 20 20 20 20 21 24 26 27 29 30 31 32 32 32 32 32 31 32 31 30 29 30 29 27 27 28
19 18 16 15 16 18 20 23 29 34 33 30 29 29 27 24 23 23 21 17 15 15 14 12 10 8 8 10 12 14 15 17 19 20 21 23 24 25 27 27 29 30 30 31 33 33 29 24 21 19 18 19 20 19 19 19 20 20 20 21 22 22 21 22 24 26 27 28 29 30 30 30 30 30 31 31 31 29 28 28 29 28 27 27 28
21 19 18 19 20 22 27 32 36 36 35 34 32 28 25 23 22 22 20 17 15 13 12 10 8 8 9 10 12 14 15 17 19 20 21 22 23 24 25 26 27 27 28 28 28 25 20 17 17 18 19 20 20 20 21 21 22 22 22 22 23 23 23 23 25 26 26 26 27 27 27 27 27 27 28 29 30 28 27 27 28 28 27 26 27
21 20 22 23 24 27 34 39 39 37 36 34 30 28 27 25 22 21 19 16 14 11 9 7 6 7 8 10 12 13 15 17 19 20 21 22 24 25 25 25 24 24 24 23 21 17 15 15 17 19 19 20 21 22 22 22 23 24 24 25 24 24 24 23 23 23 24 25 26 26 26 26 25 25 26 26 26 25 25 25 25 26 26 26 26
22 24 26 28 30 36 41 42 41 38 33 29 27 27 28 27 25 23 19 14 11 8 6 4 4 6 8 10 11 13 15 17 19 21 22 23 24 25 24 23 22 21 21 20 16 13 13 16 18 20 21 22 23 24 24 23 24 26 26 26 26 24 23 23 22 22 24 25 25 26 26 25 24 23 23 23 23 23 23 23 24 24 24 25 26
26 29 31 34 39 42 43 42 41 35 29 27 28 29 28 28 27 24 19 15 11 7 4 1 2 5 8 9 11 13 15 18 20 21 22 23 23 24 24 22 21 21 21 19 15 14 15 17 19 22 25 26 27 27 26 26 27 27 27 27 26 24 22 22 22 22 24 25 25 25 25 25 23 21 20 20 20 21 21 21 22 23 23 24 25
28 33 38 43 44 43 40 37 34 30 27 27 29 28 26 25 23 21 19 17 13 9 6 3 2 4 7 9 12 14 16 17 19 20 21 22 23 25 25 25 23 23 21 16 13 15 16 18 21 25 27 28 29 29 28 28 28 28 27 26 25 24 22 21 20 21 23 24 24 24 24 24 23 21 19 19 19 19 20 21 21 22 23 24 24
33 40 44 44 42 39 36 32 30 28 28 29 28 25 23 22 19 18 16 14 11 9 7 4 2 4 7 9 12 14 16 17 18 20 21 22 24 26 28 27 25 24 21 16 14 16 17 18 21 26 29 29 30 29 29 29 28 28 27 26 24 23 22 20 20 20 21 22 23 24 24 24 23 21 19 19 19 19 20 20 21 22 23 23 23
43 43 41 38 37 35 32 30 28 28 28 27 25 23 21 20 18 15 13 10 8 7 5 3 1 4 7 9 11 14 15 16 18 19 20 22 25 28 30 29 26 24 20 17 18 20 19 19 22 26 28 29 30 29 29 29 28 27 26 25 24 23 21 20 19 19 19 20 21 22 22 23 23 21 20 20 20 20 20 20 20 22 23 24 26
41 39 36 34 32 30 30 29 28 26 26 25 23 22 20 18 16 13 10 8 7 6 4 1 2 5 7 9 11 13 15 16 17 18 20 23 26 29 30 30 29 26 22 20 21 23 23 23 25 27 28 29 29 29 29 29 28 27 26 25 24 22 20 18 17 17 17 18 19 20 21 21 21 21 21 20 19 19 20 19 20 20 21 23 24
36 35 34 32 30 30 29 28 25 24 24 23 22 20 18 15 12 10 8 7 6 4 2 1 4 6 7 9 10 12 14 16 17 19 21 23 25 28 30 31 31 30 26 24 25 26 26 26 27 28 28 29 29 29 29 29 29 28 27 26 24 22 20 18 16 15 15 16 16 17 18 19 19 20 21 20 19 18 19 19 20 20 19 19 20
32 30 28 28 28 27 25 23 22 23 23 22 20 17 15 12 10 7 6 5 4 2 1 3 5 7 8 9 10 11 14 16 18 20 21 22 23 26 29 31 31 31 30 28 27 26 27 28 28 29 30 30 30 30 30 30 29 28 27 27 26 24 21 18 16 15 14 14 14 14 14 15 17 19 20 20 18 17 18 18 19 18 17 17 18
27 25 24 24 24 23 21 21 23 23 22 20 18 15 12 10 8 6 5 4 2 1 3 5 6 7 8 9 10 11 14 16 17 19 20 21 22 25 27 29 31 32 32 31 29 28 28 28 29 30 31 31 31 31 31 30 30 29 28 27 26 25 21 19 17 16 15 14 12 11 10 11 13 16 18 19 17 15 15 17 17 16 15 14 15
21 21 22 22 22 22 22 23 24 22 20 17 15 12 9 8 6 4 3 2 1 2 4 5 6 7 9 10 10 11 12 14 16 17 18 20 22 24 25 28 30 31 33 33 32 30 29 29 29 30 31 32 32 31 30 30 30 29 28 27 27 25 22 19 18 16 15 13 10 8 6 6 8 12 15 16 15 13 14 15 15 14 13 12 12
19 20 21 22 22 22 24 25 23 20 17 14 11 9 7 6 4 3 2 1 2 3 5 6 8 9 9 10 10 11 12 13 15 16 17 19 21 23 25 26 28 31 33 34 33 31 30 29 30 30 31 32 32 32 31 31 31 30 29 29 28 26 23 21 18 16 13 10 7 6 5 2 4 8 11 14 14 14 14 14 13 12 12 12 13
19 19 20 20 20 21 23 24 20 16 14 12 9 7 5 4 2 2 2 3 4 5 6 7 8 9 9 9 9 10 10 12 13 15 17 18 20 22 24 25 26 29 32 33 34 32 31 30 30 30 30 31 32 32 31 31 31 31 30 30 29 27 24 21 18 15 12 10 8 8 7 4 1 5 9 12 13 13 13 13 12 12 13 14 16
16 17 17 18 19 20 21 20 17 14 11 9 6 4 3 2 1 2 3 4 5 6 7 8 8 9 9 8 8 8 9 11 12 14 16 18 19 21 22 24 26 27 30 33 34 33 32 32 31 30 30 31 32 32 31 30 31 31 31 31 31 29 25 22 19 16 14 12 11 9 7 5 3 4 7 9 10 11 12 12 12 12 14 15 17
13 14 15 17 18 19 18 16 13 11 9 6 4 3 2 1 1 3 4 5 6 6 7 8 9 9 9 8 8 8 9 10 11 13 15 17 19 20 22 23 25 26 28 32 34 34 33 33 32 30 31 32 32 32 31 31 31 32 32 31 31 29 26 24 21 18 15 14 12 10 8 6 4 3 3 5 7 9 11 11 11 12 15 17 19
11 12 14 15 16 16 14 13 11 10 8 6 4 3 2 1 3 4 5 6 6 7 8 9 10 10 10 9 9 9 9 10 11 12 14 15 18 20 22 22 23 25 27 30 33 34 33 32 32 30 30 32 33 32 31 31 31 32 32 31 30 29 27 24 22 19 16 15 13 11 10 8 5 4 2 2 4 7 9 10 12 13 16 20 22
12 12 13 14 14 13 12 11 10 9 7 5 3 2 1 2 4 5 5 6 7 8 9 9 10 10 10 10 11 11 11 10 10 11 12 14 16 19 21 22 22 23 25 29 32 32 31 31 31 30 29 31 32 32 31 30 30 31 32 31 30 29 27 25 23 21 19 17 15 13 11 9 7 5 3 2 3 5 8 11 13 15 18 21 25
12 12 12 12 12 11 11 10 8 7 5 4 2 1 1 2 3 4 5 6 7 9 9 10 10 10 10 11 11 11 11 10 9 9 10 12 14 18 20 21 21 22 24 26 30 31 30 29 29 28 28 29 30 30 30 29 29 29 31 31 30 27 26 26 24 22 19 17 15 13 12 10 8 6 5 4 5 7 10 13 15 18 20 23 27
11 11 10 9 9 9 9 8 6 5 4 3 2 1 1 2 3 4 5 6 7 8 8 9 9 10 10 10 11 11 11 10 9 8 9 10 12 16 19 20 20 20 22 24 27 29 29 28 28 27 26 26 28 29 29 28 27 27 29 30 29 27 26 25 24 22 19 17 15 13 12 10 9 8 7 7 8 10 12 15 18 21 23 26 28
9 8 8 7 6 6 5 5 4 4 3 3 2 1 1 2 4 5 5 5 6 7 7 8 9 10 10 10 10 10 11 11 9 7 8 9 11 14 18 19 18 19 19 21 25 27 27 27 27 25 24 24 25 26 27 28 27 26 26 26 28 27 26 25 24 22 19 17 15 13 12 11 10 9 10 10 11 13 15 17 21 23 25 28 30
8 7 7 6 5 4 4 4 4 4 3 2 1 1 2 3 3 4 4 5 6 7 8 9 10 10 11 11 10 10 11 10 8 6 6 7 9 13 16 18 17 17 17 19 22 25 26 25 25 24 23 22 23 24 25 27 27 26 24 24 25 25 25 25 24 23 20 17 15 13 12 12 11 12 13 13 14 16 19 20 22 25 27 29 30
Wind_Direction
239 239 241 242 241 240 244 253 256 254 251 248 245 245 245 247 248 248 247 245 246 249 250 251 250 247 246 250 257 265 276 287 294 295 290 287 290 295 302 309 314 320 324 326 329 331 332 332 331 330 330 329 328 326 323 321 315 306 292 280 271 267 267 266 271 278 281 281 281 283 283 282 282 282 281 280 277 274 273 272 272 272 271 273 276
244 245 246 245 243 241 241 247 252 251 249 247 245 243 243 243 243 244 245 244 244 247 251 253 253 250 249 251 256 264 275 287 293 296 295 291 291 295 300 307 311 315 319 321 324 325 325 324 323 322 322 321 321 320 318 318 316 312 306 292 280 272 269 269 271 277 282 282 282 282 282 282 281 280 277 277 278 277 275 272 271 270 267 268 274
243 244 246 246 246 244 241 244 250 252 250 246 243 242 243 243 242 242 243 242 242 243 248 252 254 254 253 253 256 262 271 281 288 293 294 293 293 297 303 310 314 317 320 320 320 321 320 319 318 316 316 315 314 313 311 310 308 308 309 304 293 281 274 276 276 279 283 286 286 284 283 281 278 277 276 276 278 281 282 280 274 269 266 264 265
245 243 242 242 244 244 242 242 246 250 251 250 245 242 241 242 243 241 241 240 239 240 243 247 252 255 255 255 258 262 269 276 283 288 291 291 292 297 303 308 314 317 318 318 318 318 318 318 317 316 315 314 313 311 309 306 305 305 305 305 303 295 285 280 280 283 287 289 290 289 286 285 282 279 278 279 282 283 284 283 279 274 269 262 260
263 256 252 248 244 242 241 242 243 246 249 252 252 248 243 242 242 241 240 239 237 236 238 242 247 251 254 256 258 261 267 272 277 283 288 289 291 293 298 304 310 313 313 314 315 316 318 318 319 318 317 316 316 314 311 308 305 303 301 300 300 297 292 286 284 285 286 288 291 292 291 292 292 288 283 281 283 283 283 282 280 278 273 265 259
339 302 279 267 257 249 243 242 242 243 247 251 254 253 249 245 244 242 240 238 235 233 234 238 242 246 249 251 254 258 262 267 273 280 284 287 287 288 293 300 306 307 309 311 314 316 318 320 320 320 320 319 318 315 313 310 306 303 300 297 295 293 291 290 289 288 289 290 292 294 295 297 297 294 289 283 280 281 282 283 282 281 280 276 267
343 345 330 306 288 271 258 252 249 247 247 250 254 255 253 250 248 245 241 238 235 232 232 234 237 240 244 246 250 254 259 264 270 277 281 283 283 286 292 299 302 304 307 310 314 316 318 320 321 321 321 319 317 314 311 309 306 303 300 297 294 291 289 290 289 287 288 290 291 292 293 295 296 295 293 288 280 278 281 284 285 284 282 281 277
316 320 322 322 318 303 280 267 261 258 255 253 255 256 255 254 251 247 243 238 234 232 231 231 233 235 238 243 247 253 258 263 270 275 278 278 280 286 292 297 300 303 307 310 313 316 317 320 321 321 320 317 314 311 308 305 303 301 298 294 289 285 284 286 285 283 283 284 286 288 289 289 291 292 293 291 285 278 275 277 279 280 279 279 277
305 307 309 310 308 303 295 281 269 264 261 259 257 256 257 257 254 250 244 237 233 232 229 227 229 232 236 241 247 253 258 264 270 273 275 276 281 288 293 297 300 304 308 310 312 314 315 317 318 317 316 314 311 308 306 304 301 299 297 293 289 286 280 276 276 275 275 277 278 282 284 284 285 287 287 288 286 278 269 265 269 274 277 276 275
304 305 305 305 302 298 295 293 286 272 263 262 262 260 260 259 256 251 243 234 229 228 222 219 226 231 236 243 248 252 257 263 268 271 274 279 286 293 297 301 304 306 308 310 310 311 311 312 313 313 312 311 310 308 307 304 300 297 295 291 288 286 281 277 273 270 270 270 270 273 274 276 279 281 282 282 282 280 276 272 272 274 276 277 278
303 303 303 303 302 299 295 291 288 282 272 265 264 263 259 255 252 248 241 232 226 225 220 218 227 232 236 242 246 250 254 260 266 270 276 284 293 298 301 303 306 307 308 309 307 308 308 309 310 310 311 311 311 309 308 306 303 299 296 291 287 283 280 278 275 272 269 266 265 266 266 268 273 275 277 279 279 278 278 277 275 274 274 277 280
303 303 303 302 301 301 298 293 288 286 281 271 264 263 259 254 251 246 240 230 222 221 221 221 226 231 235 239 244 248 251 257 264 271 279 289 295 299 301 303 305 307 307 307 307 307 308 308 308 309 310 310 309 309 308 306 304 301 298 294 289 284 280 277 274 272 269 266 264 263 262 264 268 268 269 273 274 272 273 274 274 273 272 272 272
303 303 303 303 303 300 298 295 292 289 287 279 270 265 262 258 253 247 237 223 215 218 223 224 225 229 233 238 242 245 247 254 262 272 284 293 296 298 300 303 305 307 307 307 308 308 309 309 310 311 311 311 310 309 307 305 302 299 296 294 291 288 285 280 275 271 268 264 262 261 260 261 264 263 263 266 268 268 269 270 271 271 270 269 268
300 301 302 303 303 301 297 292 289 288 288 284 276 269 265 259 253 245 234 221 216 220 225 226 224 227 232 236 240 242 245 255 267 278 288 294 295 297 301 306 307 307 308 308 309 309 310 310 311 312 313 312 312 310 308 305 301 298 295 293 291 289 287 283 279 275 270 266 263 262 261 260 262 263 263 263 263 263 265 267 267 266 265 265 264
298 300 302 304 304 301 296 290 284 282 283 282 277 271 266 258 251 242 231 224 223 223 223 222 222 226 231 233 235 239 247 259 271 282 289 291 292 295 302 306 307 308 309 311 311 310 309 310 311 313 313 312 312 311 308 305 301 298 295 292 290 287 284 280 275 272 270 266 264 264 263 261 261 262 262 261 261 261 262 262 260 261 264 265 264
298 300 302 305 304 298 292 287 282 278 277 277 272 266 262 258 251 240 230 224 223 221 219 220 223 226 227 228 233 240 251 262 273 282 285 286 289 296 302 305 307 309 310 311 310 308 307 309 310 311 311 312 312 311 309 306 302 299 295 292 289 286 282 277 274 271 269 267 265 265 263 260 255 253 253 254 257 261 261 258 257 260 264 265 264
303 303 301 299 297 294 287 282 280 277 274 273 268 261 257 255 249 240 230 222 218 217 218 218 219 221 221 225 235 247 258 269 276 279 280 283 290 297 303 305 307 308 309 309 307 305 304 306 307 308 309 310 310 310 309 307 303 299 295 291 288 285 282 279 277 276 275 273 271 270 269 266 262 258 256 256 258 259 261 260 259 258 258 259 261
308 306 299 292 289 288 284 279 277 274 273 271 265 256 250 248 245 239 230 222 216 215 214 211 208 210 216 226 240 253 263 270 274 275 279 287 294 299 303 304 305 307 308 306 303 302 303 304 306 307 308 308 308 308 307 305 302 299 294 291 288 284 282 282 280 279 278 277 274 273 272 271 270 267 265 264 262 258 254 255 254 252 252 254 256
307 302 297 292 287 283 280 278 273 270 270 269 261 251 244 242 240 232 223 217 211 207 206 203 200 204 215 228 241 252 261 267 271 277 283 290 296 300 302 303 303 304 305 303 301 301 303 306 308 308 307 307 307 306 305 303 301 298 294 290 285 283 283 284 282 280 278 276 274 272 271 270 269 268 267 267 265 258 252 250 248 246 248 250 250
302 297 295 292 286 279 276 274 270 266 266 263 256 248 241 238 233 222 213 208 204 201 197 195 198 207 218 230 241 251 259 268 275 282 289 293 297 299 299 299 300 301 300 298 298 300 303 305 307 307 307 306 307 307 305 303 301 298 294 288 283 284 287 284 280 278 276 274 273 270 270 269 267 265 263 260 259 255 251 247 243 241 244 246 246
300 298 296 291 284 275 268 266 266 264 260 251 242 241 243 239 226 212 204 200 196 190 184 186 198 209 218 228 240 252 263 271 277 283 288 290 292 293 293 294 295 296 296 295 297 299 302 304 305 304 303 304 306 306 305 304 302 298 292 287 286 287 288 283 279 276 274 272 272 271 270 268 265 262 259 256 253 250 249 247 244 241 241 242 242
298 300 298 292 283 270 260 258 258 257 251 237 226 236 239 228 211 202 197 189 181 176 176 184 192 196 204 221 239 256 267 273 277 281 284 285 285 285 287 290 291 293 294 294 297 300 302 303 301 299 300 303 305 306 305 304 301 295 291 290 289 288 286 283 280 276 273 271 271 269 267 266 264 261 258 255 253 250 248 246 244 242 242 242 240
295 298 297 290 276 260 249 247 250 252 245 227 222 232 226 209 197 190 182 173 169 169 169 171 176 184 200 219 241 258 268 273 277 280 280 281 282 283 285 288 290 292 294 295 298 300 301 300 298 298 301 303 304 305 305 304 300 296 293 291 288 286 284 281 278 276 274 273 271 269 267 266 267 267 264 259 256 253 249 247 245 243 243 243 242
289 294 294 283 265 246 236 238 245 245 234 221 221 219 206 191 181 173 166 163 163 161 158 165 176 185 188 189 210 257 273 279 281 283 284 286 289 292 293 295 297 297 298 299 300 301 300 299 299 301 304 307 309 310 309 307 305 302 298 293 288 285 282 279 277 276 276 275 273 271 270 269 269 269 268 267 266 261 255 251 249 246 244 244 244
281 288 286 273 251 232 225 228 235 238 234 225 214 198 183 172 165 162 159 154 151 153 160 171 174 163 142 115 79 329 309 307 303 301 302 304 305 306 305 306 306 305 303 303 303 303 303 304 306 310 314 315 316 315 312 309 307 305 301 297 291 287 283 281 281 279 277 276 276 275 274 273 272 271 270 271 270 267 263 257 252 248 245 245 245
274 279 274 260 240 222 212 212 222 228 217 197 181 172 165 156 151 151 147 143 150 161 165 161 148 127 105 81 39 2 346 340 334 327 323 323 322 320 319 318 317 314 312 311 311 311 312 313 315 318 319 318 317 314 310 309 308 306 303 298 292 288 286 284 282 281 279 278 277 277 277 277 276 275 273 271 268 267 266 260 253 248 247 247 246
264 268 263 253 236 213 203 206 209 195 177 165 159 155 149 142 140 145 149 154 162 165 155 138 123 105 85 58 25 10 2 354 348 343 339 336 334 332 329 326 324 323 320 319 318 317 316 317 318 319 318 316 315 313 309 308 306 304 301 297 291 286 284 282 280 279 278 278 277 278 278 279 278 276 274 270 267 266 265 259 253 250 249 247 246
252 256 252 244 231 210 201 200 190 176 167 162 156 148 141 141 148 157 164 167 164 154 140 123 108 91 69 42 23 15 7 359 354 351 347 342 339 336 333 330 327 325 323 321 319 317 316 316 317 317 314 312 311 309 306 304 302 301 299 297 294 289 284 281 280 278 277 278 279 279 279 279 278 276 273 269 266 265 261 254 251 251 250 248 245
243 246 237 228 221 209 196 184 174 168 163 157 150 144 140 145 156 164 167 163 152 140 126 111 97 77 53 34 22 14 7 2 359 354 349 344 340 336 334 331 328 326 324 320 316 314 314 314 315 314 313 312 311 309 308 308 306 304 302 301 301 297 291 286 283 281 280 282 282 280 280 279 279 277 274 270 266 263 257 250 246 247 248 247 243
239 234 222 217 216 204 184 168 160 158 154 148 145 146 148 152 160 165 163 152 138 126 113 100 83 57 39 27 17 12 8 4 360 355 350 346 341 338 336 332 329 326 322 318 315 314 314 315 315 317 317 316 314 312 312 311 310 308 308 308 307 304 298 293 288 285 284 283 281 279 280 280 278 276 273 270 268 265 257 250 245 243 243 243 241
230 219 212 212 205 185 170 161 156 152 150 147 146 150 154 157 157 155 150 140 129 120 109 92 64 39 26 17 12 9 7 4 0 356 353 349 346 344 340 335 331 327 323 323 323 321 320 320 320 322 322 319 318 317 316 315 314 315 315 313 311 307 302 297 292 289 286 284 281 278 277 276 274 272 270 268 266 264 258 250 243 240 239 239 238
212 205 205 200 183 167 160 158 155 152 151 151 151 152 154 154 150 147 146 143 137 129 116 91 43 19 11 8 5 2 3 4 2 358 356 353 351 349 344 337 333 330 332 337 337 330 325 326 328 330 330 328 327 326 324 321 320 320 318 316 313 309 304 299 296 291 286 283 281 279 276 274 271 269 269 267 264 261 256 247 240 237 236 235 234
201 196 189 176 163 156 153 154 154 153 152 154 156 157 156 152 148 147 150 153 156 159 163 164 356 359 1 0 358 357 1 3 2 360 357 355 354 354 350 345 343 344 347 350 345 335 331 332 334 337 338 337 336 333 330 327 325 323 322 319 315 311 306 301 297 291 286 282 280 278 276 275 270 266 265 264 261 257 254 248 240 236 234 232 230
195 181 169 160 154 151 150 150 150 148 149 155 162 164 159 152 147 146 149 157 169 181 189 208 292 346 355 354 353 354 358 1 1 360 358 357 358 359 358 357 358 359 1 357 344 336 335 334 338 343 345 343 341 338 334 331 328 325 325 323 320 315 310 304 298 291 286 282 279 277 276 274 269 262 260 260 256 253 250 247 241 235 231 229 230
166 157 153 151 148 144 141 140 140 144 153 163 167 162 154 148 143 143 148 155 165 176 188 211 266 344 351 348 349 352 355 358 359 358 357 358 0 3 5 6 5 4 5 0 347 342 339 336 341 349 349 347 344 341 337 334 332 330 329 328 324 319 315 309 302 294 289 285 281 278 276 272 265 258 255 255 254 249 245 243 239 233 229 230 234
146 144 144 143 139 135 133 137 143 151 158 161 158 151 147 144 141 141 145 151 159 173 189 210 282 345 344 342 347 351 353 354 355 355 356 359 4 9 12 11 7 4 2 356 351 350 346 343 347 352 352 349 347 344 341 339 336 335 335 334 330 325 319 314 309 301 294 288 283 278 273 270 265 257 250 250 250 247 243 241 238 234 231 231 233
136 137 138 138 137 137 140 145 149 152 153 152 150 147 146 143 141 140 142 149 160 170 179 214 328 339 339 340 345 349 351 350 351 353 355 360 7 13 15 13 11 6 1 356 356 356 354 352 353 355 354 352 350 348 345 343 340 339 340 340 336 331 324 319 313 305 297 290 283 277 272 268 263 255 246 243 245 244 240 237 236 236 235 234 234
131 134 138 141 143 146 149 150 150 150 150 149 147 145 143 141 141 142 143 147 153 158 165 326 334 336 336 337 342 348 349 348 350 353 357 2 9 14 14 14 13 10 5 2 2 1 358 357 357 358 357 356 355 352 349 346 344 344 344 344 342 339 334 327 321 312 303 295 287 279 272 266 259 251 243 237 237 238 235 232 233 235 235 234 235
135 140 144 146 148 151 152 152 152 152 151 149 146 145 143 141 141 142 140 138 138 130 3 340 337 334 333 336 342 347 348 348 351 355 358 2 8 12 13 13 13 11 8 6 4 2 1 0 360 0 1 360 357 355 351 348 347 347 348 348 347 346 343 338 331 323 315 307 297 287 277 266 255 247 239 232 230 230 228 228 229 230 230 230 230
140 143 146 150 154 157 156 154 153 151 149 149 149 149 146 144 144 138 123 113 97 23 346 337 333 332 335 338 341 344 348 349 351 354 357 1 7 10 11 11 11 11 10 8 6 4 4 3 2 2 2 2 0 357 352 349 349 350 352 353 353 352 350 346 340 334 327 320 310 297 284 269 254 243 233 225 220 219 221 221 220 220 223 225 224
147 150 155 160 161 158 154 154 153 150 150 152 153 151 149 147 140 124 106 83 18 340 332 330 330 334 336 336 335 338 345 349 349 352 356 0 6 9 9 9 10 10 9 9 8 7 6 5 3 1 2 3 2 359 355 353 352 353 356 358 358 357 355 352 348 344 337 329 318 309 303 280 254 238 224 213 205 203 207 209 207 209 215 219 219
155 159 164 165 160 156 155 155 153 153 156 158 155 151 150 143 122 101 76 359 330 323 324 329 334 334 332 328 327 332 340 344 346 349 355 359 5 8 7 6 7 9 9 9 9 8 8 7 4 1 1 3 3 1 359 357 355 355 358 0 1 1 360 358 356 351 344 338 338 351 2 343 244 220 207 199 194 191 194 198 200 204 210 212 216
152 156 160 160 157 156 157 158 157 159 163 164 161 157 154 139 107 63 357 332 324 321 325 331 332 327 322 320 321 325 331 336 339 345 352 358 3 6 5 4 4 6 8 9 9 9 10 9 6 3 2 2 3 3 2 360 358 358 0 2 3 5 5 3 2 359 356 0 12 19 22 29 113 179 185 189 190 189 193 197 199 202 207 209 212
147 150 154 156 158 160 161 161 163 167 169 169 165 156 145 131 71 2 339 326 319 319 324 327 326 323 322 322 323 322 322 326 333 340 347 354 1 3 3 2 2 3 6 7 8 10 13 11 8 6 4 3 5 7 7 5 3 2 2 3 5 7 9 9 7 6 8 15 21 24 27 40 83 151 175 188 197 204 208 207 204 203 205 205 204
145 149 152 156 161 164 165 165 169 173 172 167 158 139 125 108 354 337 324 314 313 317 322 326 330 332 333 331 330 327 323 324 329 334 340 349 358 1 1 0 0 1 4 6 7 11 14 13 10 9 6 5 6 9 9 9 7 6 5 5 6 8 11 13 11 11 15 21 26 29 32 43 69 114 161 188 203 213 217 214 209 203 198 194 191
135 144 151 156 162 166 166 166 168 168 162 152 139 121 94 16 332 320 311 309 313 320 326 331 334 337 339 340 339 336 333 332 331 331 336 345 353 357 360 1 360 360 3 5 7 11 15 15 13 11 8 6 7 9 10 10 10 9 8 9 9 11 14 16 16 18 24 29 33 35 36 41 57 74 92 160 190 203 206 204 200 194 188 183 180
126 135 143 149 155 159 160 161 161 158 147 133 121 106 28 322 313 308 307 312 320 324 329 334 335 335 339 343 343 340 340 341 337 332 333 342 350 355 359 1 360 360 4 6 8 10 14 15 14 13 12 9 9 10 11 11 11 12 12 12 12 14 17 19 19 21 25 29 34 38 41 44 55 69 82 117 165 184 186 184 184 183 180 177 173
127 133 139 145 150 155 156 157 157 154 146 138 141 181 283 300 301 302 308 316 323 328 331 334 335 334 336 340 341 341 343 346 344 334 332 339 348 355 359 1 1 2 5 8 8 10 15 17 16 16 15 14 12 13 14 14 13 14 17 17 15 15 19 22 21 20 23 28 34 38 44 52 61 74 92 121 149 162 165 167 170 173 172 170 168
128 133 138 145 152 155 156 158 159 160 161 168 186 211 252 284 296 307 315 321 326 332 336 335 336 337 340 343 344 343 345 350 350 340 333 337 347 355 359 2 4 5 7 9 9 11 16 20 19 18 18 18 18 18 19 17 15 16 19 21 20 19 22 26 25 22 24 31 37 40 48 59 70 83 101 123 142 151 155 157 161 163 164 163 162
127 132 138 147 154 157 158 158 156 158 162 162 165 186 264 293 302 312 323 330 335 340 342 341 341 343 346 349 350 349 350 355 357 347 335 339 350 357 1 5 8 8 9 11 11 13 17 22 22 20 19 20 21 21 23 23 20 17 17 21 24 25 26 29 31 29 30 36 43 48 56 66 79 96 112 125 136 142 147 151 154 156 157 156 156
106 112 119 126 130 134 136 136 137 144 151 156 175 249 286 299 311 325 336 341 344 346 345 344 343 345 347 351 355 355 354 357 1 356 342 345 357 3 5 9 13 13 12 14 15 16 19 24 25 23 21 21 22 23 26 28 27 23 20 21 25 27 29 32 35 35 37 42 51 58 66 77 92 106 117 126 133 137 140 145 148 149 150 150 150
Height
1506 1508 1509 1511 1512 1513 1514 1515 1516 1518 1519 1521 1522 1524 1525 1527 1529 1530 1531 1532 1533 1533 1533 1534 1534 1534 1534 1534 1534 1534 1535 1535 1535 1535 1535 1535 1536 1536 1536 1536 1535 1535 1535 1534 1533 1532 1531 1531 1530 1529 1528 1527 1527 1526 1525 1525 1525 1525 1525 1525 1526 1525 1525 1525 1522 1516 1516 1518 1517 1517 1517 1516 1515 1516 1516 1515 1515 1515 1515 1515 1515 1515 1515 1515 1515
1503 1505 1506 1508 1509 1511 1512 1513 1514 1515 1516 1517 1518 1520 1522 1523 1525 1527 1529 1530 1531 1531 1532 1532 1532 1533 1532 1532 1533 1533 1533 1534 1534 1534 1533 1533 1534 1534 1534 1534 1534 1534 1534 1533 1532 1532 1531 1530 1529 1528 1527 1527 1526 1525 1524 1524 1524 1523 1523 1523 1523 1523 1522 1521 1520 1515 1513 1514 1514 1513 1513 1513 1512 1513 1513 1512 1512 1512 1512 1512 1512 1512 1512 1512 1512
1499 1501 1502 1504 1505 1508 1510 1511 1511 1511 1512 1513 1514 1516 1518 1520 1522 1524 1525 1527 1528 1529 1530 1530 1531 1531 1531 1531 1531 1532 1532 1532 1532 1532 1532 1532 1532 1532 1532 1533 1532 1532 1532 1531 1530 1530 1530 1529 1528 1527 1526 1526 1525 1525 1524 1523 1523 1522 1521 1521 1520 1519 1519 1518 1517 1514 1510 1510 1510 1510 1509 1509 1509 1509 1509 1509 1508 1508 1508 1508 1508 1508 1508 1508 1508
1497 1497 1498 1499 1501 1504 1506 1507 1507 1507 1508 1509 1511 1513 1514 1516 1519 1521 1522 1524 1525 1526 1527 1528 1529 1529 1529 1529 1530 1530 1530 1531 1531 1531 1531 1531 1531 1531 1531 1531 1531 1530 1530 1529 1528 1528 1527 1526 1526 1525 1524 1524 1523 1523 1522 1522 1521 1520 1519 1519 1518 1517 1516 1515 1514 1512 1509 1506 1506 1506 1505 1505 1505 1506 1506 1505 1505 1505 1505 1504 1504 1504 1504 1504 1504
1495 1495 1496 1497 1498 1499 1500 1502 1503 1503 1504 1506 1508 1510 1511 1513 1515 1517 1519 1520 1521 1523 1524 1525 1526 1526 1527 1528 1528 1529 1529 1529 1529 1529 1530 1530 1530 1530 1530 1530 1529 1529 1528 1527 1527 1526 1525 1524 1523 1522 1521 1520 1520 1520 1519 1519 1518 1518 1517 1516 1516 1515 1514 1513 1511 1510 1507 1504 1503 1503 1502 1501 1501 1502 1503 1502 1502 1501 1501 1501 1501 1501 1500 1500 1500
1494 1494 1494 1495 1495 1496 1497 1498 1498 1500 1501 1502 1504 1507 1509 1510 1511 1513 1515 1517 1518 1519 1520 1521 1522 1523 1524 1525 1526 1527 1527 1527 1528 1528 1528 1528 1528 1528 1528 1528 1528 1527 1526 1525 1524 1523 1522 1521 1520 1519 1518 1518 1517 1517 1516 1516 1515 1515 1514 1513 1513 1512 1511 1510 1509 1507 1505 1503 1501 1499 1499 1498 1497 1497 1499 1499 1498 1498 1498 1497 1497 1497 1497 1496 1497
1493 1493 1493 1493 1494 1494 1494 1494 1495 1496 1498 1498 1500 1503 1505 1506 1508 1510 1512 1513 1514 1515 1516 1517 1518 1520 1521 1522 1523 1524 1525 1525 1526 1526 1526 1526 1526 1526 1526 1526 1525 1524 1524 1523 1522 1521 1520 1519 1518 1517 1516 1515 1515 1514 1513 1513 1512 1511 1511 1510 1509 1509 1507 1506 1506 1504 1503 1501 1499 1497 1496 1495 1494 1494 1494 1495 1495 1495 1495 1494 1494 1494 1494 1493 1493
1491 1491 1491 1492 1492 1492 1492 1492 1492 1493 1494 1495 1496 1497 1499 1501 1503 1505 1507 1508 1509 1510 1511 1513 1515 1516 1517 1519 1520 1521 1522 1523 1523 1524 1524 1524 1524 1524 1523 1523 1522 1522 1521 1520 1519 1518 1517 1516 1516 1515 1514 1513 1512 1512 1511 1510 1509 1508 1507 1507 1506 1505 1504 1503 1502 1501 1500 1498 1497 1495 1494 1493 1492 1491 1491 1491 1491 1492 1492 1492 1490 1490 1491 1490 1490
1490 1490 1490 1490 1490 1490 1490 1490 1489 1490 1490 1491 1492 1493 1495 1497 1498 1500 1501 1502 1504 1505 1506 1508 1510 1513 1514 1515 1517 1518 1519 1520 1521 1521 1521 1521 1521 1521 1520 1520 1519 1518 1518 1517 1516 1515 1514 1514 1513 1512 1511 1510 1509 1509 1508 1507 1506 1504 1504 1503 1502 1501 1501 1500 1499 1498 1497 1495 1494 1492 1491 1490 1490 1489 1489 1488 1488 1488 1488 1488 1487 1487 1487 1486 1486
1489 1489 1488 1488 1488 1488 1488 1488 1487 1487 1487 1488 1488 1489 1491 1492 1494 1495 1495 1496 1499 1500 1502 1506 1508 1509 1511 1512 1514 1515 1516 1517 1518 1518 1518 1518 1518 1518 1517 1516 1516 1515 1514 1514 1513 1512 1511 1511 1510 1509 1508 1507 1506 1505 1504 1503 1502 1501 1500 1499 1498 1497 1496 1495 1495 1494 1493 1492 1490 1489 1488 1486 1486 1486 1486 1485 1485 1484 1484 1484 1484 1483 1483 1482 1482
1486 1486 1486 1486 1486 1486 1485 1485 1485 1485 1485 1485 1485 1486 1487 1487 1489 1490 1490 1494 1498 1499 1501 1505 1506 1506 1508 1509 1510 1511 1512 1513 1514 1515 1515 1515 1515 1515 1514 1513 1513 1512 1511 1511 1510 1509 1508 1507 1507 1506 1505 1504 1502 1501 1500 1499 1497 1496 1495 1494 1494 1493 1491 1490 1489 1489 1489 1488 1486 1486 1484 1483 1483 1483 1482 1482 1482 1481 1480 1480 1480 1480 1480 1479 1479
1484 1484 1484 1484 1484 1483 1483 1483 1483 1482 1482 1482 1482 1482 1483 1483 1485 1486 1488 1492 1496 1497 1498 1501 1503 1504 1505 1506 1507 1508 1508 1508 1509 1510 1511 1511 1511 1511 1511 1511 1510 1509 1508 1507 1506 1505 1504 1504 1503 1502 1501 1500 1498 1497 1495 1494 1492 1491 1490 1489 1488 1487 1486 1485 1484 1484 1483 1483 1481 1481 1480 1479 1479 1479 1479 1478 1478 1478 1477 1477 1477 1477 1477 1476 1476
1481 1481 1481 1481 1481 1481 1481 1481 1480 1480 1480 1479 1479 1479 1480 1481 1483 1484 1485 1488 1491 1493 1495 1497 1499 1501 1502 1503 1504 1505 1505 1505 1505 1506 1507 1507 1507 1508 1508 1508 1507 1507 1505 1504 1503 1502 1501 1500 1499 1498 1497 1496 1495 1493 1491 1489 1487 1486 1484 1483 1482 1481 1480 1480 1479 1478 1478 1477 1476 1475 1475 1475 1474 1474 1475 1475 1474 1474 1473 1473 1473 1473 1473 1472 1472
1478 1478 1479 1479 1479 1479 1479 1479 1478 1478 1477 1476 1476 1476 1477 1479 1481 1482 1483 1485 1487 1489 1491 1492 1495 1497 1499 1500 1501 1502 1503 1502 1502 1503 1503 1504 1504 1505 1505 1505 1504 1503 1502 1500 1499 1498 1497 1496 1495 1494 1493 1492 1491 1489 1487 1485 1482 1480 1479 1477 1476 1476 1475 1473 1473 1472 1472 1471 1469 1468 1469 1471 1470 1469 1470 1470 1469 1469 1469 1469 1470 1469 1468 1468 1468
1476 1476 1476 1477 1477 1477 1476 1476 1476 1475 1475 1474 1474 1474 1475 1477 1478 1480 1481 1483 1484 1485 1487 1489 1492 1495 1496 1498 1499 1500 1500 1500 1500 1500 1501 1501 1501 1502 1502 1502 1501 1500 1499 1497 1496 1495 1494 1493 1492 1490 1489 1488 1487 1486 1483 1481 1478 1475 1473 1472 1471 1470 1469 1468 1468 1467 1466 1466 1464 1463 1464 1465 1465 1465 1465 1465 1464 1464 1464 1464 1464 1464 1463 1462 1462
1474 1474 1474 1474 1474 1474 1473 1473 1473 1473 1472 1472 1471 1472 1473 1474 1476 1478 1479 1481 1482 1484 1485 1487 1490 1492 1494 1496 1498 1498 1498 1498 1498 1498 1499 1499 1499 1499 1499 1499 1498 1496 1495 1494 1493 1492 1491 1490 1488 1487 1485 1483 1482 1481 1479 1476 1473 1470 1467 1466 1464 1463 1462 1462 1462 1461 1461 1460 1459 1458 1458 1459 1459 1459 1459 1460 1459 1460 1460 1459 1458 1460 1459 1457 1455
1472 1472 1472 1472 1471 1471 1470 1470 1470 1470 1469 1469 1468 1469 1470 1472 1474 1476 1477 1478 1480 1481 1483 1485 1487 1489 1491 1494 1495 1496 1495 1496 1496 1496 1497 1497 1497 1497 1496 1495 1494 1493 1491 1490 1490 1488 1487 1486 1485 1483 1481 1479 1477 1476 1474 1472 1468 1465 1462 1460 1459 1457 1456 1456 1455 1454 1453 1452 1452 1451 1451 1451 1452 1452 1453 1453 1453 1455 1456 1453 1453 1456 1455 1452 1450
1470 1469 1468 1468 1467 1467 1467 1466 1466 1466 1466 1466 1465 1466 1467 1469 1470 1472 1474 1475 1477 1479 1481 1483 1484 1487 1490 1492 1493 1493 1493 1494 1495 1495 1495 1495 1495 1494 1493 1492 1490 1489 1487 1487 1485 1484 1482 1481 1480 1479 1476 1475 1473 1471 1469 1467 1464 1460 1458 1456 1453 1452 1451 1451 1449 1448 1447 1446 1445 1445 1444 1444 1444 1444 1445 1446 1447 1449 1449 1446 1449 1451 1449 1447 1448
1466 1465 1464 1463 1463 1463 1463 1462 1463 1463 1462 1462 1462 1463 1464 1465 1467 1469 1471 1473 1475 1478 1480 1482 1484 1487 1489 1490 1491 1491 1492 1493 1493 1493 1494 1493 1493 1492 1491 1489 1487 1485 1484 1483 1481 1479 1478 1476 1474 1473 1470 1469 1467 1465 1464 1462 1459 1456 1453 1451 1448 1446 1446 1445 1444 1443 1442 1441 1440 1440 1439 1439 1438 1438 1438 1439 1440 1441 1441 1441 1443 1444 1442 1442 1444
1462 1460 1459 1459 1459 1459 1459 1459 1459 1459 1459 1459 1459 1460 1461 1462 1464 1466 1468 1471 1474 1476 1478 1482 1484 1487 1488 1489 1489 1489 1490 1491 1492 1492 1492 1492 1491 1489 1487 1485 1483 1482 1481 1479 1477 1475 1474 1472 1470 1467 1465 1462 1461 1459 1457 1456 1454 1451 1448 1445 1442 1441 1441 1440 1439 1438 1437 1435 1435 1434 1433 1433 1433 1433 1433 1433 1434 1434 1434 1435 1436 1437 1436 1436 1438
1457 1456 1455 1455 1455 1455 1455 1455 1455 1455 1456 1455 1456 1457 1458 1459 1461 1463 1466 1469 1471 1474 1478 1481 1484 1486 1487 1488 1488 1489 1489 1490 1490 1490 1490 1489 1488 1486 1484 1482 1481 1479 1477 1475 1474 1472 1470 1468 1465 1463 1460 1457 1455 1453 1451 1450 1448 1445 1442 1439 1437 1436 1436 1434 1433 1432 1431 1430 1429 1428 1427 1427 1427 1428 1428 1428 1428 1429 1429 1429 1430 1430 1430 1431 1432
1452 1452 1451 1450 1450 1451 1451 1451 1451 1452 1452 1452 1452 1454 1455 1457 1459 1462 1465 1467 1470 1474 1478 1481 1484 1485 1487 1487 1487 1488 1488 1488 1488 1488 1487 1486 1485 1483 1481 1479 1478 1476 1473 1471 1470 1468 1466 1463 1461 1457 1454 1451 1449 1448 1446 1444 1442 1439 1436 1434 1432 1431 1430 1428 1426 1426 1425 1424 1423 1422 1422 1422 1422 1422 1422 1422 1422 1423 1423 1424 1424 1425 1425 1425 1426
1448 1447 1446 1445 1445 1446 1447 1447 1448 1448 1448 1448 1449 1451 1453 1455 1458 1461 1464 1467 1470 1474 1478 1481 1483 1485 1486 1486 1486 1486 1487 1487 1486 1485 1484 1483 1482 1480 1478 1477 1475 1473 1470 1467 1466 1463 1461 1458 1455 1452 1449 1446 1444 1442 1440 1438 1436 1432 1430 1428 1427 1426 1424 1422 1421 1420 1419 1419 1418 1417 1417 1417 1416 1416 1416 1416 1417 1417 1418 1418 1419 1420 1420 1420 1421
1444 1442 1442 1441 1441 1442 1443 1444 1444 1445 1445 1446 1447 1449 1451 1453 1457 1461 1464 1467 1470 1474 1478 1481 1483 1484 1484 1485 1485 1485 1485 1485 1483 1482 1481 1480 1479 1477 1476 1474 1472 1470 1466 1464 1461 1459 1456 1453 1449 1446 1443 1441 1438 1436 1433 1431 1429 1427 1425 1423 1422 1420 1419 1417 1416 1416 1415 1414 1413 1412 1411 1411 1411 1410 1410 1410 1411 1412 1412 1412 1413 1414 1414 1415 1416
1439 1438 1438 1437 1438 1439 1440 1441 1441 1442 1443 1444 1445 1447 1450 1453 1459 1462 1464 1467 1470 1474 1478 1481 1482 1482 1483 1484 1484 1484 1483 1482 1481 1480 1479 1478 1476 1474 1472 1470 1468 1466 1462 1459 1456 1453 1450 1446 1443 1440 1437 1435 1432 1430 1427 1425 1423 1421 1420 1418 1417 1415 1414 1413 1412 1411 1410 1408 1408 1406 1406 1405 1405 1405 1405 1406 1406 1406 1407 1407 1407 1408 1409 1410 1411
1434 1434 1434 1434 1435 1436 1437 1438 1439 1440 1441 1443 1446 1448 1451 1456 1461 1464 1465 1468 1471 1475 1477 1479 1480 1481 1481 1482 1482 1482 1481 1480 1479 1478 1476 1474 1473 1470 1468 1466 1463 1460 1457 1454 1450 1447 1443 1440 1437 1435 1432 1430 1428 1426 1423 1421 1419 1417 1415 1414 1412 1411 1410 1409 1407 1406 1405 1403 1402 1401 1400 1400 1400 1400 1400 1400 1400 1400 1401 1402 1402 1403 1404 1405 1405
1429 1429 1430 1432 1432 1433 1434 1436 1437 1439 1441 1444 1446 1449 1453 1457 1461 1465 1467 1469 1472 1474 1476 1477 1478 1479 1480 1480 1480 1479 1479 1477 1476 1475 1473 1471 1469 1466 1464 1461 1458 1455 1452 1449 1445 1442 1439 1436 1434 1431 1429 1426 1424 1422 1419 1417 1415 1413 1411 1410 1408 1407 1406 1405 1403 1402 1400 1399 1398 1396 1396 1395 1395 1394 1394 1394 1394 1394 1396 1396 1397 1397 1399 1400 1400
1425 1426 1427 1429 1429 1430 1432 1434 1435 1438 1442 1444 1446 1450 1453 1457 1462 1467 1468 1469 1471 1473 1474 1475 1476 1477 1478 1478 1477 1477 1476 1475 1473 1471 1469 1467 1465 1463 1460 1457 1454 1451 1448 1445 1442 1439 1436 1433 1431 1429 1426 1424 1421 1419 1417 1414 1412 1410 1408 1406 1404 1403 1402 1400 1399 1397 1396 1395 1393 1392 1391 1390 1390 1389 1389 1389 1388 1389 1390 1391 1392 1392 1394 1395 1396
1421 1422 1424 1426 1426 1428 1429 1432 1434 1438 1441 1444 1447 1451 1454 1457 1462 1467 1469 1470 1471 1471 1472 1473 1474 1475 1476 1476 1475 1475 1474 1472 1471 1469 1467 1465 1462 1460 1457 1454 1451 1448 1445 1442 1439 1437 1434 1431 1429 1427 1424 1422 1419 1416 1414 1411 1408 1406 1404 1402 1400 1399 1397 1396 1394 1393 1391 1390 1388 1387 1386 1385 1384 1384 1384 1383 1383 1384 1385 1386 1387 1388 1390 1391 1391
1417 1419 1421 1422 1423 1425 1428 1431 1435 1438 1441 1444 1447 1451 1455 1458 1463 1466 1468 1469 1470 1470 1471 1472 1473 1473 1474 1474 1473 1473 1472 1470 1469 1467 1465 1463 1461 1458 1455 1452 1449 1446 1443 1441 1438 1435 1432 1430 1427 1425 1422 1419 1416 1413 1410 1407 1404 1402 1400 1398 1396 1394 1393 1391 1390 1388 1387 1385 1384 1382 1381 1380 1379 1379 1379 1378 1378 1379 1380 1381 1382 1384 1385 1386 1386
1413 1415 1417 1418 1420 1423 1427 1431 1435 1439 1442 1445 1447 1451 1455 1459 1463 1465 1467 1468 1468 1469 1470 1471 1471 1472 1472 1472 1472 1471 1470 1468 1467 1465 1463 1461 1458 1455 1453 1450 1447 1445 1442 1439 1436 1433 1431 1428 1425 1423 1420 1417 1413 1410 1407 1404 1401 1398 1396 1394 1392 1390 1388 1386 1385 1384 1382 1380 1379 1378 1377 1376 1375 1375 1375 1374 1374 1375 1376 1377 1378 1379 1380 1382 1383
1409 1411 1413 1415 1418 1422 1426 1431 1435 1439 1443 1446 1448 1451 1455 1458 1461 1463 1465 1467 1467 1468 1469 1470 1471 1471 1471 1471 1470 1469 1468 1467 1465 1463 1461 1458 1456 1454 1451 1449 1446 1444 1440 1437 1434 1432 1429 1427 1424 1421 1417 1414 1411 1407 1404 1401 1398 1395 1393 1390 1388 1386 1384 1382 1381 1379 1378 1376 1375 1373 1373 1372 1371 1371 1370 1370 1371 1371 1372 1373 1374 1375 1376 1378 1379
1406 1408 1410 1414 1419 1423 1427 1431 1436 1440 1443 1446 1448 1451 1455 1457 1459 1461 1463 1465 1467 1468 1469 1470 1470 1470 1470 1470 1469 1468 1466 1464 1462 1461 1459 1457 1455 1453 1451 1448 1445 1441 1437 1434 1432 1430 1428 1425 1422 1418 1415 1411 1408 1404 1401 1398 1395 1392 1390 1387 1384 1382 1380 1378 1377 1375 1373 1372 1371 1369 1368 1368 1367 1367 1367 1367 1367 1367 1368 1369 1370 1371 1373 1374 1375
1404 1407 1410 1414 1420 1424 1429 1433 1437 1441 1443 1446 1449 1452 1455 1457 1458 1460 1462 1464 1466 1467 1468 1469 1469 1469 1469 1468 1467 1466 1464 1462 1461 1460 1458 1456 1454 1451 1448 1445 1442 1439 1436 1433 1431 1429 1426 1423 1420 1416 1412 1409 1405 1402 1399 1396 1392 1389 1386 1383 1380 1378 1376 1374 1372 1371 1369 1368 1366 1365 1364 1364 1363 1363 1363 1363 1364 1364 1365 1366 1367 1368 1369 1371 1372
1406 1410 1414 1418 1422 1427 1431 1435 1438 1440 1443 1446 1450 1453 1455 1457 1459 1460 1462 1463 1465 1466 1467 1468 1468 1468 1467 1467 1466 1464 1463 1461 1460 1459 1457 1455 1453 1449 1446 1443 1440 1437 1435 1432 1430 1427 1424 1421 1417 1414 1410 1407 1403 1400 1396 1393 1390 1387 1383 1380 1377 1374 1372 1370 1368 1367 1365 1364 1363 1361 1361 1360 1360 1359 1359 1360 1360 1361 1362 1363 1364 1365 1366 1368 1369
1411 1416 1421 1424 1427 1430 1433 1436 1438 1441 1444 1448 1452 1454 1456 1457 1459 1460 1462 1463 1465 1465 1466 1467 1467 1467 1466 1465 1464 1463 1462 1461 1459 1458 1456 1454 1451 1447 1444 1441 1439 1436 1433 1431 1429 1426 1422 1419 1416 1412 1409 1405 1402 1398 1394 1391 1387 1384 1381 1378 1374 1372 1369 1367 1365 1363 1362 1360 1359 1358 1357 1356 1356 1356 1356 1356 1357 1358 1359 1360 1361 1362 1364 1365 1367
1417 1421 1425 1429 1430 1432 1434 1437 1440 1444 1447 1450 1452 1454 1456 1458 1459 1461 1462 1463 1464 1465 1465 1466 1466 1466 1465 1464 1463 1462 1461 1460 1459 1457 1456 1453 1450 1447 1444 1441 1438 1435 1432 1430 1427 1424 1421 1418 1414 1411 1407 1404 1400 1396 1392 1389 1385 1382 1378 1375 1372 1369 1367 1364 1362 1360 1359 1357 1356 1354 1353 1353 1352 1352 1352 1353 1353 1355 1356 1357 1359 1360 1361 1363 1365
1422 1425 1428 1430 1432 1434 1437 1440 1443 1446 1448 1451 1453 1455 1456 1458 1460 1461 1462 1463 1463 1464 1465 1465 1465 1465 1464 1463 1462 1462 1461 1460 1458 1457 1455 1452 1449 1446 1444 1441 1438 1435 1432 1429 1426 1423 1420 1416 1413 1409 1405 1402 1398 1394 1390 1387 1383 1380 1376 1373 1370 1367 1364 1361 1359 1357 1356 1354 1352 1351 1350 1349 1349 1349 1349 1349 1350 1352 1353 1354 1356 1357 1359 1360 1362
1425 1428 1430 1432 1435 1437 1440 1442 1445 1447 1449 1451 1454 1456 1457 1459 1460 1461 1462 1462 1463 1463 1464 1464 1464 1464 1463 1462 1462 1461 1460 1459 1458 1456 1454 1452 1449 1446 1444 1441 1438 1435 1432 1429 1425 1422 1419 1415 1412 1408 1404 1400 1396 1393 1389 1385 1382 1378 1374 1371 1368 1365 1362 1359 1357 1355 1353 1351 1350 1348 1347 1346 1345 1345 1345 1346 1348 1349 1350 1352 1354 1355 1356 1358 1359
1428 1431 1433 1435 1438 1440 1442 1444 1446 1448 1450 1453 1455 1456 1458 1459 1460 1461 1461 1462 1462 1463 1463 1463 1463 1463 1462 1462 1461 1460 1459 1458 1457 1455 1454 1452 1449 1446 1443 1441 1438 1435 1432 1428 1424 1421 1418 1414 1410 1407 1403 1399 1395 1392 1388 1384 1380 1376 1373 1369 1366 1363 1360 1357 1355 1353 1351 1349 1347 1346 1344 1343 1342 1342 1342 1344 1345 1347 1348 1350 1352 1353 1354 1356 1357
1431 1433 1435 1437 1440 1442 1444 1446 1448 1450 1452 1454 1455 1457 1458 1459 1460 1460 1461 1461 1462 1462 1462 1462 1462 1461 1461 1460 1460 1459 1459 1457 1456 1455 1453 1451 1448 1446 1443 1441 1438 1435 1431 1427 1424 1420 1417 1413 1410 1406 1402 1399 1395 1391 1387 1383 1379 1375 1372 1368 1364 1361 1358 1356 1353 1351 1349 1347 1345 1344 1342 1341 1340 1340 1341 1342 1344 1346 1347 1349 1350 1352 1353 1354 1355
1433 1435 1437 1439 1441 1443 1445 1447 1449 1451 1453 1455 1456 1457 1458 1459 1459 1460 1460 1460 1461 1461 1461 1461 1460 1460 1460 1459 1459 1458 1458 1457 1455 1454 1452 1450 1448 1445 1443 1441 1438 1434 1431 1427 1423 1420 1416 1412 1409 1406 1402 1398 1394 1390 1386 1382 1378 1375 1371 1367 1363 1360 1357 1354 1352 1349 1347 1346 1344 1342 1341 1340 1339 1339 1340 1342 1343 1345 1346 1348 1349 1350 1352 1353 1354
1435 1437 1439 1441 1443 1445 1447 1448 1450 1452 1454 1455 1456 1457 1457 1458 1458 1459 1459 1459 1459 1460 1460 1460 1460 1459 1459 1459 1458 1457 1457 1456 1455 1453 1451 1450 1447 1445 1443 1440 1437 1434 1431 1428 1424 1420 1416 1412 1409 1405 1402 1398 1394 1390 1386 1382 1378 1374 1370 1366 1363 1360 1356 1353 1351 1349 1347 1345 1343 1341 1341 1340 1340 1340 1340 1342 1343 1344 1345 1347 1348 1350 1351 1352 1354
1437 1439 1441 1442 1444 1446 1448 1450 1452 1453 1454 1455 1456 1456 1456 1457 1457 1458 1458 1458 1458 1459 1459 1459 1459 1459 1458 1458 1457 1456 1456 1455 1454 1452 1451 1449 1447 1444 1442 1440 1437 1434 1431 1428 1424 1420 1416 1412 1409 1405 1402 1398 1394 1390 1386 1383 1379 1375 1370 1366 1363 1359 1356 1353 1350 1348 1346 1344 1343 1342 1341 1341 1340 1340 1341 1342 1343 1344 1345 1347 1348 1349 1351 1352 1354
1439 1441 1442 1444 1446 1448 1449 1451 1452 1453 1454 1455 1455 1455 1456 1456 1457 1457 1457 1458 1458 1458 1459 1458 1458 1458 1457 1457 1456 1456 1455 1454 1453 1451 1450 1448 1446 1444 1442 1439 1437 1434 1431 1428 1424 1420 1416 1412 1409 1405 1402 1398 1394 1390 1386 1383 1379 1375 1371 1367 1363 1360 1356 1353 1351 1349 1347 1345 1343 1343 1342 1341 1341 1341 1342 1343 1344 1345 1346 1347 1348 1350 1352 1353 1355
1441 1442 1444 1445 1447 1449 1450 1451 1453 1453 1454 1454 1454 1454 1455 1455 1456 1456 1457 1457 1458 1458 1458 1458 1457 1457 1456 1456 1455 1454 1454 1453 1452 1450 1449 1447 1445 1443 1441 1439 1436 1434 1431 1428 1424 1420 1416 1413 1409 1406 1403 1399 1395 1391 1387 1383 1380 1376 1372 1368 1365 1361 1358 1355 1352 1350 1348 1346 1345 1344 1343 1343 1342 1343 1343 1344 1345 1346 1347 1348 1350 1351 1353 1355 1357
1443 1444 1445 1447 1448 1450 1451 1452 1453 1453 1453 1453 1454 1454 1454 1454 1455 1456 1457 1457 1457 1457 1457 1457 1456 1456 1455 1455 1454 1453 1452 1452 1451 1449 1448 1446 1445 1443 1441 1438 1436 1434 1431 1428 1425 1421 1417 1414 1410 1407 1404 1400 1396 1392 1388 1384 1381 1378 1374 1370 1366 1363 1359 1357 1354 1352 1349 1348 1347 1346 1345 1345 1344 1344 1345 1346 1346 1347 1348 1350 1351 1353 1355 1356 1358
1445 1446 1447 1448 1449 1450 1451 1452 1453 1453 1453 1453 1453 1453 1454 1454 1455 1456 1456 1456 1456 1456 1456 1456 1455 1455 1454 1454 1453 1452 1451 1450 1449 1448 1447 1446 1444 1442 1440 1438 1436 1434 1431 1429 1426 1422 1418 1415 1411 1408 1405 1402 1398 1394 1390 1386 1383 1379 1376 1372 1368 1365 1362 1359 1356 1354 1352 1350 1349 1348 1347 1347 1347 1347 1347 1348 1349 1349 1350 1352 1353 1355 1357 1359 1360
1447 1448 1449 1450 1450 1451 1452 1452 1452 1452 1452 1453 1453 1453 1453 1454 1455 1455 1456 1456 1455 1455 1455 1455 1454 1454 1453 1453 1452 1451 1450 1449 1448 1448 1447 1445 1444 1442 1440 1438 1436 1434 1432 1429 1427 1423 1420 1416 1413 1410 1407 1404 1400 1396 1392 1388 1385 1381 1378 1375 1372 1368 1365 1362 1359 1357 1355 1353 1352 1351 1350 1349 1349 1349 1350 1350 1351 1352 1353 1354 1356 1358 1359 1361 1363
1448 1449 1450 1450 1451 1451 1452 1452 1452 1452 1452 1453 1453 1453 1454 1454 1455 1455 1455 1455 1454 1454 1454 1454 1453 1453 1452 1452 1451 1450 1449 1448 1448 1447 1446 1445 1443 1442 1440 1438 1436 1434 1432 1430 1428 1425 1421 1418 1414 1412 1409 1406 1403 1399 1395 1391 1387 1384 1381 1379 1376 1372 1369 1366 1363 1361 1359 1357 1355 1354 1353 1353 1352 1353 1353 1354 1354 1355 1356 1358 1359 1361 1363 1364 1366
1449 1450 1450 1451 1451 1452 1452 1452 1452 1452 1453 1453 1453 1454 1454 1454 1454 1454 1454 1454 1454 1453 1453 1453 1452 1452 1451 1451 1450 1449 1449 1448 1447 1446 1445 1444 1443 1442 1440 1438 1436 1435 1433 1431 1429 1426 1423 1420 1417 1414 1411 1408 1405 1401 1398 1394 1390 1387 1385 1382 1379 1376 1373 1370 1367 1365 1363 1361 1360 1359 1358 1357 1357 1357 1357 1358 1358 1359 1360 1361 1363 1365 1366 1368 1370